This is the latest recevied weather packets stored in our database for station/object CA4LJZ-10. If no packets are shown the sender has not sent any weather packets the latest 10 day(s).
| Time | Temp. | Humidity | Pressure | Rain* | Wind** | Luminosity | Snow |
|---|---|---|---|---|---|---|---|
| 1777877160 | 18.89° C | 38% | 954.2 hPa | - | - | - | - |
| 1777876259 | 18.89° C | 37% | 954 hPa | - | - | - | - |
| 1777875358 | 18.89° C | 37% | 954.2 hPa | - | - | - | - |
| 1777874457 | 18.89° C | 38% | 954.4 hPa | - | - | - | - |
| 1777873556 | 18.89° C | 37% | 954.4 hPa | - | - | - | - |
| 1777872655 | 19.44° C | 37% | 954.6 hPa | - | - | - | - |
| 1777871754 | 18.89° C | 37% | 954.9 hPa | - | - | - | - |
| 1777870918 | 18.89° C | 37% | 955.1 hPa | - | - | - | - |
| 1777870853 | 18.89° C | 37% | 955.1 hPa | - | - | - | - |
| 1777869953 | 19.44° C | 37% | 955.5 hPa | - | - | - | - |
| 1777869052 | 19.44° C | 36% | 955.2 hPa | - | - | - | - |
| 1777868151 | 19.44° C | 36% | 955.3 hPa | - | - | - | - |
| 1777867250 | 20° C | 36% | 955.4 hPa | - | - | - | - |
| 1777866349 | 20° C | 36% | 955.5 hPa | - | - | - | - |
| 1777865448 | 20° C | 35% | 955.4 hPa | - | - | - | - |
| 1777864547 | 20° C | 36% | 955.2 hPa | - | - | - | - |
| 1777863646 | 20° C | 35% | 955.3 hPa | - | - | - | - |
| 1777862746 | 20.56° C | 34% | 955.6 hPa | - | - | - | - |
| 1777861844 | 21.67° C | 34% | 955.5 hPa | - | - | - | - |
| 1777860962 | 20° C | 36% | 955.5 hPa | - | - | - | - |
| 1777860061 | 19.44° C | 39% | 955.4 hPa | - | - | - | - |
| 1777859160 | 19.44° C | 37% | 955.4 hPa | - | - | - | - |
| 1777858315 | 19.44° C | 35% | 955.6 hPa | - | - | - | - |
| 1777858259 | 19.44° C | 35% | 955.6 hPa | - | - | - | - |
| 1777857359 | 20° C | 35% | 955.2 hPa | - | - | - | - |
* Rain since midnight (hover to see other rain measurements)
** Current wind speed in m/s (hover to see current wind gust speed)